Hourly Data Report for June 07, 2021

WESTERN HEAD
NOVA SCOTIA
Current Station Operator: ECCC - MSC

43°59'24.070" N
64°39'51.008" W
10.10 m
8206240
71411
WWE

Download Data

Hourly Data (June 2021)
Hourly Data Report for June 7, 2021
TIME
LST
Temp Definition
°C
Dew Point Definition
°C
Rel Hum Definition
%
Precip. Amount Definition
mm

Wind Dir Definition
10's deg

Wind Spd Definition
km/h
Visibility Definition
km
Stn Press Definition
kPa
Hmdx Definition


Wind Chill Definition


Weather Definition


00:00 12.4 LegendMM LegendMM 0.0 24 11   101.49     LegendNANA
01:00 11.8 LegendMM LegendMM 0.0 22 9   101.52     LegendNANA
02:00 11.5 LegendMM LegendMM 0.0 21 12   101.49     LegendNANA
03:00 10.6 LegendMM LegendMM 0.0 23 10   101.47     LegendNANA
04:00 9.9 LegendMM LegendMM 0.0 20 16   101.44     LegendNANA
05:00 9.7 LegendMM LegendMM 0.0 24 10   101.46     LegendNANA
06:00 10.1 LegendMM LegendMM 0.0 22 11   101.46     LegendNANA
07:00 11.2 11.2 100 0.0 21 9   101.47     LegendNANA
08:00 12.0 11.0 93 0.0 22 12   101.50     LegendNANA
09:00 12.8 10.9 88 0.0 21 15   101.50     LegendNANA
10:00 13.6 11.0 84 0.0 22 14   101.49     LegendNANA
11:00 13.7 10.6 82 0.0 21 20   101.46     LegendNANA
12:00 14.5 11.1 80 0.0 22 21   101.41     LegendNANA
13:00 14.4 10.9 80 0.0 23 17   101.38     LegendNANA
14:00 14.5 10.9 79 0.0 24 13   101.35     LegendNANA
15:00 15.5 10.8 73 0.0 24 12   101.31     LegendNANA
16:00 14.0 10.5 79 0.0 20 21   101.29     LegendNANA
17:00 13.5 10.2 80 0.0 22 11   101.27     LegendNANA
18:00 12.8 10.0 83 0.0 24 11   101.25     LegendNANA
19:00 12.0 10.1 88 0.0 23 12   101.27     LegendNANA
20:00 10.9 10.2 96 0.0 25 8   101.29     LegendNANA
21:00 10.2 10.2 100 0.0 20 8   101.32     LegendNANA
22:00 18.6 15.2 80 0.0 24 19   101.31     LegendNANA
23:00 17.6 13.8 78 0.0 24 19   101.28     LegendNANA

Notes on Data Quality.

Legend

  • E = Estimated
  • M = Missing
  • NA = Not Available*
  • [empty] = Indicates an unobserved value
Date modified: